Year,Month,Day,Hour,Minute,Value (Times are PST for windspeed in km/hr)
2015,11,16,00,00,5.60
2015,11,16,00,01,4.00
2015,11,16,00,02,4.00
2015,11,16,00,03,4.60
2015,11,16,00,04,4.10
2015,11,16,00,05,4.40
2015,11,16,00,06,4.90
2015,11,16,00,07,4.80
2015,11,16,00,08,5.50
2015,11,16,00,09,6.30
2015,11,16,00,10,6.30
2015,11,16,00,11,3.70
2015,11,16,00,12,6.30
2015,11,16,00,13,3.50
2015,11,16,00,14,2.90
2015,11,16,00,15,2.90
2015,11,16,00,16,2.40
2015,11,16,00,17,3.40
2015,11,16,00,18,4.30
2015,11,16,00,19,2.60
2015,11,16,00,20,1.90
2015,11,16,00,21,2.10
2015,11,16,00,22,1.60
2015,11,16,00,23,1.60
2015,11,16,00,24,0.80
2015,11,16,00,25,1.70
2015,11,16,00,26,1.10
2015,11,16,00,27,0.20
2015,11,16,00,28,0.10
2015,11,16,00,29,0.40
2015,11,16,00,30,0.50
2015,11,16,00,31,1.20
2015,11,16,00,32,1.90
2015,11,16,00,33,1.60
2015,11,16,00,34,1.90
2015,11,16,00,35,2.30
2015,11,16,00,36,1.00
2015,11,16,00,37,1.00
2015,11,16,00,38,1.60
2015,11,16,00,39,1.90
2015,11,16,00,40,2.40
2015,11,16,00,41,2.30
2015,11,16,00,42,1.00
2015,11,16,00,43,0.20
2015,11,16,00,44,1.40
2015,11,16,00,45,1.10
2015,11,16,00,46,0.70
2015,11,16,00,47,0.70
2015,11,16,00,48,0.70
2015,11,16,00,49,0.20
2015,11,16,00,50,0.30
2015,11,16,00,51,0.80
2015,11,16,00,52,0.30
2015,11,16,00,53,0.00
2015,11,16,00,54,0.20
2015,11,16,00,55,0.40
2015,11,16,00,56,1.20
2015,11,16,00,57,0.10
2015,11,16,00,58,0.50
2015,11,16,00,59,2.50
2015,11,16,01,00,3.40
2015,11,16,01,01,2.80
2015,11,16,01,02,2.30
2015,11,16,01,03,2.70
2015,11,16,01,04,2.80
2015,11,16,01,05,4.30
2015,11,16,01,06,3.30
2015,11,16,01,07,2.00
2015,11,16,01,08,1.60
2015,11,16,01,09,0.40
2015,11,16,01,10,0.70
2015,11,16,01,11,0.80
2015,11,16,01,12,0.80
2015,11,16,01,13,1.40
2015,11,16,01,14,1.00
2015,11,16,01,15,0.70
2015,11,16,01,16,2.10
2015,11,16,01,17,1.50
2015,11,16,01,18,1.30
2015,11,16,01,19,0.80
2015,11,16,01,20,1.10
2015,11,16,01,21,0.50
2015,11,16,01,22,0.20
2015,11,16,01,23,0.00
2015,11,16,01,24,0.00
2015,11,16,01,25,0.80
2015,11,16,01,26,1.70
2015,11,16,01,27,1.10
2015,11,16,01,28,1.20
2015,11,16,01,29,1.10
2015,11,16,01,30,1.20
2015,11,16,01,31,1.30
2015,11,16,01,32,0.60
2015,11,16,01,33,1.60
2015,11,16,01,34,2.20
2015,11,16,01,35,2.10
2015,11,16,01,36,2.60
2015,11,16,01,37,0.60
2015,11,16,01,38,0.20
2015,11,16,01,39,0.40
2015,11,16,01,40,0.00
2015,11,16,01,41,0.00
2015,11,16,01,42,0.30
2015,11,16,01,43,1.40
2015,11,16,01,44,3.40
2015,11,16,01,45,2.00
2015,11,16,01,46,1.30
2015,11,16,01,47,2.40
2015,11,16,01,48,3.00
2015,11,16,01,49,1.60
2015,11,16,01,50,1.90
2015,11,16,01,51,2.30
2015,11,16,01,52,2.60
2015,11,16,01,53,2.60
2015,11,16,01,54,1.80
2015,11,16,01,55,1.40
2015,11,16,01,56,0.40
2015,11,16,01,57,0.10
2015,11,16,01,58,0.80
2015,11,16,01,59,0.20
2015,11,16,02,00,0.10
2015,11,16,02,01,0.30
2015,11,16,02,02,2.20
2015,11,16,02,03,3.60
2015,11,16,02,04,3.20
2015,11,16,02,05,3.00
2015,11,16,02,06,3.60
2015,11,16,02,07,1.50
2015,11,16,02,08,1.10
2015,11,16,02,09,0.00
2015,11,16,02,10,0.00
2015,11,16,02,11,0.40
2015,11,16,02,12,1.10
2015,11,16,02,13,1.90
2015,11,16,02,14,2.70
2015,11,16,02,15,3.10
2015,11,16,02,16,2.40
2015,11,16,02,17,1.50
2015,11,16,02,18,0.00
2015,11,16,02,19,0.10
2015,11,16,02,20,0.50
2015,11,16,02,21,2.10
2015,11,16,02,22,3.30
2015,11,16,02,23,3.30
2015,11,16,02,24,3.90
2015,11,16,02,25,3.70
2015,11,16,02,26,1.60
2015,11,16,02,27,1.50
2015,11,16,02,28,1.60
2015,11,16,02,29,0.40
2015,11,16,02,30,0.10
2015,11,16,02,31,0.70
2015,11,16,02,32,0.50
2015,11,16,02,33,0.00
2015,11,16,02,34,0.50
2015,11,16,02,35,0.00
2015,11,16,02,36,0.10
2015,11,16,02,37,1.00
2015,11,16,02,38,1.30
2015,11,16,02,39,1.10
2015,11,16,02,40,1.00
2015,11,16,02,41,2.30
2015,11,16,02,42,1.90
2015,11,16,02,43,1.00
2015,11,16,02,44,1.10
2015,11,16,02,45,0.40
2015,11,16,02,46,0.40
2015,11,16,02,47,0.30
2015,11,16,02,48,0.80
2015,11,16,02,49,1.90
2015,11,16,02,50,1.60
2015,11,16,02,51,1.40
2015,11,16,02,52,1.50
2015,11,16,02,53,1.40
2015,11,16,02,54,2.10
2015,11,16,02,55,0.80
2015,11,16,02,56,0.70
2015,11,16,02,57,0.60
2015,11,16,02,58,0.20
2015,11,16,02,59,0.50
2015,11,16,03,00,0.20
2015,11,16,03,01,0.50
2015,11,16,03,02,1.10
2015,11,16,03,03,2.40
2015,11,16,03,04,3.50
2015,11,16,03,05,1.60
2015,11,16,03,06,1.90
2015,11,16,03,07,3.40
2015,11,16,03,08,2.60
2015,11,16,03,09,1.70
2015,11,16,03,10,0.30
2015,11,16,03,11,0.10
2015,11,16,03,12,0.10
2015,11,16,03,13,0.00
2015,11,16,03,14,0.20
2015,11,16,03,15,1.80
2015,11,16,03,16,1.20
2015,11,16,03,17,0.10
2015,11,16,03,18,2.70
2015,11,16,03,19,1.00
2015,11,16,03,20,0.80
2015,11,16,03,21,1.60
2015,11,16,03,22,2.10
2015,11,16,03,23,2.90
2015,11,16,03,24,3.30
2015,11,16,03,25,2.70
2015,11,16,03,26,2.40
2015,11,16,03,27,1.70
2015,11,16,03,28,1.90
2015,11,16,03,29,1.40
2015,11,16,03,30,1.70
2015,11,16,03,31,2.30
2015,11,16,03,32,2.00
2015,11,16,03,33,2.60
2015,11,16,03,34,3.00
2015,11,16,03,35,2.90
2015,11,16,03,36,2.40
2015,11,16,03,37,2.40
2015,11,16,03,38,1.90
2015,11,16,03,39,1.70
2015,11,16,03,40,1.50
2015,11,16,03,41,0.70
2015,11,16,03,42,0.50
2015,11,16,03,43,0.10
2015,11,16,03,44,1.40
2015,11,16,03,45,1.10
2015,11,16,03,46,1.50
2015,11,16,03,47,2.00
2015,11,16,03,48,2.90
2015,11,16,03,49,2.40
2015,11,16,03,50,1.00
2015,11,16,03,51,2.00
2015,11,16,03,52,2.00
2015,11,16,03,53,2.00
2015,11,16,03,54,2.10
2015,11,16,03,55,1.90
2015,11,16,03,56,2.00
2015,11,16,03,57,2.70
2015,11,16,03,58,2.90
2015,11,16,03,59,2.10
2015,11,16,04,00,1.40
2015,11,16,04,01,0.90
2015,11,16,04,02,0.30
2015,11,16,04,03,0.10
2015,11,16,04,04,0.10
2015,11,16,04,05,1.00
2015,11,16,04,06,1.50
2015,11,16,04,07,2.30
2015,11,16,04,08,2.40
2015,11,16,04,09,2.90
2015,11,16,04,10,2.90
2015,11,16,04,11,2.60
2015,11,16,04,12,2.30
2015,11,16,04,13,1.90
2015,11,16,04,14,1.50
2015,11,16,04,15,0.80
2015,11,16,04,16,0.00
2015,11,16,04,17,0.00
2015,11,16,04,18,0.00
2015,11,16,04,19,0.10
2015,11,16,04,20,0.70
2015,11,16,04,21,1.60
2015,11,16,04,22,1.50
2015,11,16,04,23,1.90
2015,11,16,04,24,1.00
2015,11,16,04,25,0.80
2015,11,16,04,26,0.40
2015,11,16,04,27,0.40
2015,11,16,04,28,0.00
2015,11,16,04,29,0.00
2015,11,16,04,30,0.10
2015,11,16,04,31,0.40
2015,11,16,04,32,0.40
2015,11,16,04,33,0.40
2015,11,16,04,34,0.00
2015,11,16,04,35,0.00
2015,11,16,04,36,0.20
2015,11,16,04,37,1.40
2015,11,16,04,38,1.30
2015,11,16,04,39,0.10
2015,11,16,04,40,0.10
2015,11,16,04,41,0.00
2015,11,16,04,42,0.10
2015,11,16,04,43,0.20
2015,11,16,04,44,0.30
2015,11,16,04,45,0.20
2015,11,16,04,46,0.10
2015,11,16,04,47,0.00
2015,11,16,04,48,0.80
2015,11,16,04,49,0.80
2015,11,16,04,50,0.80
2015,11,16,04,51,1.40
2015,11,16,04,52,2.90
2015,11,16,04,53,2.70
2015,11,16,04,54,1.50
2015,11,16,04,55,0.60
2015,11,16,04,56,0.00
2015,11,16,04,57,0.00
2015,11,16,04,58,0.00
2015,11,16,04,59,0.00
2015,11,16,05,00,0.00
2015,11,16,05,01,0.00
2015,11,16,05,02,0.00
2015,11,16,05,03,0.00
2015,11,16,05,04,0.00
2015,11,16,05,05,0.00
2015,11,16,05,06,0.00
2015,11,16,05,07,0.10
2015,11,16,05,08,0.70
2015,11,16,05,09,1.10
2015,11,16,05,10,0.30
2015,11,16,05,11,0.00
2015,11,16,05,12,0.20
2015,11,16,05,13,0.20
2015,11,16,05,14,0.40
2015,11,16,05,15,0.10
2015,11,16,05,16,0.20
2015,11,16,05,17,0.70
2015,11,16,05,18,0.10
2015,11,16,05,19,0.00
2015,11,16,05,20,0.80
2015,11,16,05,21,1.00
2015,11,16,05,22,0.20
2015,11,16,05,23,0.00
2015,11,16,05,24,0.00
2015,11,16,05,25,0.00
2015,11,16,05,26,0.00
2015,11,16,05,27,0.00
2015,11,16,05,28,0.00
2015,11,16,05,29,0.00
2015,11,16,05,30,0.00
2015,11,16,05,31,0.00
2015,11,16,05,32,0.20
2015,11,16,05,33,0.10
2015,11,16,05,34,0.00
2015,11,16,05,35,0.10
2015,11,16,05,36,0.00
2015,11,16,05,37,0.50
2015,11,16,05,38,0.00
2015,11,16,05,39,0.00
2015,11,16,05,40,0.00
2015,11,16,05,41,0.00
2015,11,16,05,42,0.40
2015,11,16,05,43,0.20
2015,11,16,05,44,0.10
2015,11,16,05,45,0.00
2015,11,16,05,46,0.00
2015,11,16,05,47,0.00
2015,11,16,05,48,0.00
2015,11,16,05,49,0.00
2015,11,16,05,50,0.10
2015,11,16,05,51,0.50
2015,11,16,05,52,0.50
2015,11,16,05,53,1.40
2015,11,16,05,54,1.20
2015,11,16,05,55,0.00
2015,11,16,05,56,0.00
2015,11,16,05,57,0.20
2015,11,16,05,58,0.00
2015,11,16,05,59,0.90
2015,11,16,06,00,0.70
2015,11,16,06,01,1.00
2015,11,16,06,02,0.90
2015,11,16,06,03,3.60
2015,11,16,06,04,2.80
2015,11,16,06,05,1.80
2015,11,16,06,06,4.50
2015,11,16,06,07,5.40
2015,11,16,06,08,4.30
2015,11,16,06,09,1.00
2015,11,16,06,10,7.90
2015,11,16,06,11,5.70
2015,11,16,06,12,6.10
2015,11,16,06,13,5.40
2015,11,16,06,14,2.40
2015,11,16,06,15,2.90
2015,11,16,06,16,3.50
2015,11,16,06,17,5.50
2015,11,16,06,18,5.60
2015,11,16,06,19,4.00
2015,11,16,06,20,2.50
2015,11,16,06,21,6.70
2015,11,16,06,22,2.60
2015,11,16,06,23,3.00
2015,11,16,06,24,0.90
2015,11,16,06,25,0.70
2015,11,16,06,26,2.00
2015,11,16,06,27,1.60
2015,11,16,06,28,5.00
2015,11,16,06,29,4.00
2015,11,16,06,30,3.60
2015,11,16,06,31,2.40
2015,11,16,06,32,1.60
2015,11,16,06,33,1.80
2015,11,16,06,34,3.30
2015,11,16,06,35,7.90
2015,11,16,06,36,3.30
2015,11,16,06,37,4.40
2015,11,16,06,38,7.60
2015,11,16,06,39,2.90
2015,11,16,06,40,2.60
2015,11,16,06,41,4.80
2015,11,16,06,42,4.80
2015,11,16,06,43,4.80
2015,11,16,06,44,5.30
2015,11,16,06,45,4.40
2015,11,16,06,46,4.60
2015,11,16,06,47,5.10
2015,11,16,06,48,2.70
2015,11,16,06,49,4.90
2015,11,16,06,50,7.20
2015,11,16,06,51,4.50
2015,11,16,06,52,3.90
2015,11,16,06,53,3.60
2015,11,16,06,54,5.50
2015,11,16,06,55,6.70
2015,11,16,06,56,3.60
2015,11,16,06,57,2.90
2015,11,16,06,58,3.30
2015,11,16,06,59,7.30
2015,11,16,07,00,5.30
2015,11,16,07,01,5.20
2015,11,16,07,02,2.10
2015,11,16,07,03,3.60
2015,11,16,07,04,6.20
2015,11,16,07,05,7.50
2015,11,16,07,06,8.30
2015,11,16,07,07,8.60
2015,11,16,07,08,7.30
2015,11,16,07,09,9.40
2015,11,16,07,10,5.90
2015,11,16,07,11,7.60
2015,11,16,07,12,7.00
2015,11,16,07,13,6.80
2015,11,16,07,14,8.60
2015,11,16,07,15,8.20
2015,11,16,07,16,5.80
2015,11,16,07,17,4.80
2015,11,16,07,18,5.20
2015,11,16,07,19,2.40
2015,11,16,07,20,1.80
2015,11,16,07,21,3.00
2015,11,16,07,22,4.10
2015,11,16,07,23,4.00
2015,11,16,07,24,4.30
2015,11,16,07,25,3.80
2015,11,16,07,26,0.60
2015,11,16,07,27,2.70
2015,11,16,07,28,2.70
2015,11,16,07,29,5.50
2015,11,16,07,30,5.90
2015,11,16,07,31,1.70
2015,11,16,07,32,5.10
2015,11,16,07,33,4.20
2015,11,16,07,34,3.80
2015,11,16,07,35,5.10
2015,11,16,07,36,5.90
2015,11,16,07,37,4.20
2015,11,16,07,38,5.80
2015,11,16,07,39,6.40
2015,11,16,07,40,7.60
2015,11,16,07,41,7.60
2015,11,16,07,42,4.20
2015,11,16,07,43,3.40
2015,11,16,07,44,9.00
2015,11,16,07,45,5.50
2015,11,16,07,46,8.10
2015,11,16,07,47,9.10
2015,11,16,07,48,5.40
2015,11,16,07,49,6.00
2015,11,16,07,50,8.00
2015,11,16,07,51,6.40
2015,11,16,07,52,2.80
2015,11,16,07,53,1.60
2015,11,16,07,54,5.40
2015,11,16,07,55,7.20
2015,11,16,07,56,4.90
2015,11,16,07,57,7.60
2015,11,16,07,58,4.50
2015,11,16,07,59,4.20
2015,11,16,08,00,8.00
2015,11,16,08,01,6.10
2015,11,16,08,02,6.70
2015,11,16,08,03,5.50
2015,11,16,08,04,5.90
2015,11,16,08,05,4.30
2015,11,16,08,06,3.40
2015,11,16,08,07,3.80
2015,11,16,08,08,4.00
2015,11,16,08,09,5.50
2015,11,16,08,10,3.10
2015,11,16,08,11,7.10
2015,11,16,08,12,8.00
2015,11,16,08,13,3.60
2015,11,16,08,14,2.70
2015,11,16,08,15,7.30
2015,11,16,08,16,10.10
2015,11,16,08,17,5.80
2015,11,16,08,18,7.30
2015,11,16,08,19,8.00
2015,11,16,08,20,8.80
2015,11,16,08,21,9.20
2015,11,16,08,22,6.30
2015,11,16,08,23,10.10
2015,11,16,08,24,10.10
2015,11,16,08,25,11.10
2015,11,16,08,26,9.80
2015,11,16,08,27,8.40
2015,11,16,08,28,4.90
2015,11,16,08,29,8.90
2015,11,16,08,30,10.90
2015,11,16,08,31,8.30
2015,11,16,08,32,10.00
2015,11,16,08,33,8.80
2015,11,16,08,34,11.80
2015,11,16,08,35,6.70
2015,11,16,08,36,13.30
2015,11,16,08,37,14.20
2015,11,16,08,38,7.70
2015,11,16,08,39,15.20
2015,11,16,08,40,5.80
2015,11,16,08,41,7.30
2015,11,16,08,42,9.60
2015,11,16,08,43,6.40
2015,11,16,08,44,12.00
2015,11,16,08,45,16.00
2015,11,16,08,46,10.50
2015,11,16,08,47,12.70
2015,11,16,08,48,9.70
2015,11,16,08,49,10.60
2015,11,16,08,50,9.40
2015,11,16,08,51,8.20
2015,11,16,08,52,10.00
2015,11,16,08,53,11.10
2015,11,16,08,54,13.10
2015,11,16,08,55,12.10
2015,11,16,08,56,7.00
2015,11,16,08,57,11.00
2015,11,16,08,58,13.00
2015,11,16,08,59,13.80
2015,11,16,09,00,14.80
2015,11,16,09,01,9.50
2015,11,16,09,02,12.70
2015,11,16,09,03,8.40
2015,11,16,09,04,8.40
2015,11,16,09,05,11.80
2015,11,16,09,06,6.60
2015,11,16,09,07,7.00
2015,11,16,09,08,4.90
2015,11,16,09,09,12.10
2015,11,16,09,10,9.50
2015,11,16,09,11,14.70
2015,11,16,09,12,17.90
2015,11,16,09,13,8.20
2015,11,16,09,14,9.30
2015,11,16,09,15,8.20
2015,11,16,09,16,11.00
2015,11,16,09,17,12.30
2015,11,16,09,18,10.30
2015,11,16,09,19,4.80
2015,11,16,09,20,15.70
2015,11,16,09,21,13.10
2015,11,16,09,22,8.40
2015,11,16,09,23,13.10
2015,11,16,09,24,13.00
2015,11,16,09,25,9.10
2015,11,16,09,26,7.70
2015,11,16,09,27,6.60
2015,11,16,09,28,10.90
2015,11,16,09,29,7.90
2015,11,16,09,30,8.00
2015,11,16,09,31,13.00
2015,11,16,09,32,10.20
2015,11,16,09,33,16.90
2015,11,16,09,34,10.40
2015,11,16,09,35,8.90
2015,11,16,09,36,9.40
2015,11,16,09,37,15.30
2015,11,16,09,38,10.70
2015,11,16,09,39,16.20
2015,11,16,09,40,10.00
2015,11,16,09,41,8.10
2015,11,16,09,42,17.40
2015,11,16,09,43,10.80
2015,11,16,09,44,15.90
2015,11,16,09,45,9.10
2015,11,16,09,46,12.90
2015,11,16,09,47,6.90
2015,11,16,09,48,14.40
2015,11,16,09,49,15.10
2015,11,16,09,50,14.80
2015,11,16,09,51,10.90
2015,11,16,09,52,10.10
2015,11,16,09,53,8.90
2015,11,16,09,54,10.40
2015,11,16,09,55,11.70
2015,11,16,09,56,7.10
2015,11,16,09,57,11.30
2015,11,16,09,58,10.10
2015,11,16,09,59,12.90
2015,11,16,10,00,15.00
2015,11,16,10,01,19.10
2015,11,16,10,02,13.40
2015,11,16,10,03,8.80
2015,11,16,10,04,12.90
2015,11,16,10,05,16.40
2015,11,16,10,06,17.00
2015,11,16,10,07,11.70
2015,11,16,10,08,16.70
2015,11,16,10,09,11.90
2015,11,16,10,10,13.60
2015,11,16,10,11,16.70
2015,11,16,10,12,20.50
2015,11,16,10,13,12.90
2015,11,16,10,14,16.80
2015,11,16,10,15,9.80
2015,11,16,10,16,18.70
2015,11,16,10,17,20.10
2015,11,16,10,18,21.80
2015,11,16,10,19,18.70
2015,11,16,10,20,19.40
2015,11,16,10,21,18.90
2015,11,16,10,22,15.40
2015,11,16,10,23,15.30
2015,11,16,10,24,10.20
2015,11,16,10,25,9.50
2015,11,16,10,26,12.30
2015,11,16,10,27,17.20
2015,11,16,10,28,18.30
2015,11,16,10,29,21.60
2015,11,16,10,30,14.40
2015,11,16,10,31,18.20
2015,11,16,10,32,14.80
2015,11,16,10,33,15.70
2015,11,16,10,34,16.60
2015,11,16,10,35,16.80
2015,11,16,10,36,13.70
2015,11,16,10,37,12.00
2015,11,16,10,38,16.00
2015,11,16,10,39,16.20
2015,11,16,10,40,23.40
2015,11,16,10,41,11.70
2015,11,16,10,42,16.70
2015,11,16,10,43,19.10
2015,11,16,10,44,21.30
2015,11,16,10,45,24.20
2015,11,16,10,46,18.60
2015,11,16,10,47,16.90
2015,11,16,10,48,17.20
2015,11,16,10,49,17.80
2015,11,16,10,50,22.60
2015,11,16,10,51,15.30
2015,11,16,10,52,17.90
2015,11,16,10,53,18.80
2015,11,16,10,54,23.00
2015,11,16,10,55,28.70
2015,11,16,10,56,20.70
2015,11,16,10,57,19.80
2015,11,16,10,58,17.90
2015,11,16,10,59,13.50
2015,11,16,11,00,22.30
2015,11,16,11,01,21.40
2015,11,16,11,02,23.80
2015,11,16,11,03,22.10
2015,11,16,11,04,18.40
2015,11,16,11,05,29.60
2015,11,16,11,06,23.50
2015,11,16,11,07,21.70
2015,11,16,11,08,20.70
2015,11,16,11,09,22.70
2015,11,16,11,10,21.30
2015,11,16,11,11,27.30
2015,11,16,11,12,16.70
2015,11,16,11,13,18.00
2015,11,16,11,14,21.60
2015,11,16,11,15,24.60
2015,11,16,11,16,24.70
2015,11,16,11,17,16.00
2015,11,16,11,18,28.70
2015,11,16,11,19,26.80
2015,11,16,11,20,28.90
2015,11,16,11,21,22.90
2015,11,16,11,22,35.70
2015,11,16,11,23,18.50
2015,11,16,11,24,27.80
2015,11,16,11,25,19.50
2015,11,16,11,26,26.00
2015,11,16,11,27,15.00
2015,11,16,11,28,23.50
2015,11,16,11,29,30.60
2015,11,16,11,30,16.00
2015,11,16,11,31,19.10
2015,11,16,11,32,18.00
2015,11,16,11,33,18.60
2015,11,16,11,34,22.30
2015,11,16,11,35,20.00
2015,11,16,11,36,15.90
2015,11,16,11,37,13.30
2015,11,16,11,38,15.40
2015,11,16,11,39,13.90
2015,11,16,11,40,16.60
2015,11,16,11,41,15.10
2015,11,16,11,42,25.40
2015,11,16,11,43,17.00
2015,11,16,11,44,17.60
2015,11,16,11,45,22.70
2015,11,16,11,46,16.20
2015,11,16,11,47,18.10
2015,11,16,11,48,19.60
2015,11,16,11,49,19.30
2015,11,16,11,50,23.40
2015,11,16,11,51,20.50
2015,11,16,11,52,17.60
2015,11,16,11,53,15.50
2015,11,16,11,54,15.60
2015,11,16,11,55,18.80
2015,11,16,11,56,16.50
2015,11,16,11,57,12.90
2015,11,16,11,58,19.30
2015,11,16,11,59,23.20
2015,11,16,12,00,24.70
2015,11,16,12,01,21.00
2015,11,16,12,02,20.90
2015,11,16,12,03,25.10
2015,11,16,12,04,18.10
2015,11,16,12,05,20.40
2015,11,16,12,06,16.50
2015,11,16,12,07,16.20
2015,11,16,12,08,24.00
2015,11,16,12,09,11.10
2015,11,16,12,10,9.60
2015,11,16,12,11,12.90
2015,11,16,12,12,17.40
2015,11,16,12,13,16.40
2015,11,16,12,14,23.40
2015,11,16,12,15,23.70
2015,11,16,12,16,19.00
2015,11,16,12,17,17.30
2015,11,16,12,18,23.50
2015,11,16,12,19,17.90
2015,11,16,12,20,20.00
2015,11,16,12,21,24.10
2015,11,16,12,22,15.50
2015,11,16,12,23,26.60
2015,11,16,12,24,18.80
2015,11,16,12,25,29.40
2015,11,16,12,26,35.20
2015,11,16,12,27,20.20
2015,11,16,12,28,25.40
2015,11,16,12,29,26.30
2015,11,16,12,30,36.20
2015,11,16,12,31,34.70
2015,11,16,12,32,27.30
2015,11,16,12,33,24.00
2015,11,16,12,34,25.40
2015,11,16,12,35,28.60
2015,11,16,12,36,24.00
2015,11,16,12,37,17.50
2015,11,16,12,38,19.40
2015,11,16,12,39,37.10
2015,11,16,12,40,28.80
2015,11,16,12,41,20.00
2015,11,16,12,42,30.10
2015,11,16,12,43,17.80
2015,11,16,13,28,14.00
2015,11,16,13,29,22.10
2015,11,16,13,30,21.90
2015,11,16,13,31,14.20
2015,11,16,13,32,20.60
2015,11,16,13,33,21.60
2015,11,16,13,34,19.40
2015,11,16,13,35,23.70
2015,11,16,13,36,21.30
2015,11,16,13,37,35.80
2015,11,16,13,38,20.30
2015,11,16,13,39,20.00
2015,11,16,13,40,22.30
2015,11,16,13,41,22.50
2015,11,16,13,42,24.70
2015,11,16,13,43,19.40
2015,11,16,13,44,18.20
2015,11,16,13,45,28.30
2015,11,16,13,46,16.80
2015,11,16,13,47,18.10
2015,11,16,13,48,28.90
2015,11,16,13,49,25.80
2015,11,16,13,50,25.90
2015,11,16,13,51,17.40
2015,11,16,13,52,18.60
2015,11,16,13,53,25.20
2015,11,16,13,54,26.10
2015,11,16,13,55,22.10
2015,11,16,13,56,12.00
2015,11,16,13,57,14.90
2015,11,16,13,58,20.60
2015,11,16,13,59,16.70
2015,11,16,14,00,16.70
2015,11,16,14,01,11.50
2015,11,16,14,02,19.50
2015,11,16,14,03,23.00
2015,11,16,14,04,15.00
2015,11,16,14,05,17.10
2015,11,16,14,06,14.90
2015,11,16,14,07,21.90
2015,11,16,14,08,19.20
2015,11,16,14,09,19.50
2015,11,16,14,10,21.50
2015,11,16,14,11,26.10
2015,11,16,14,12,21.20
2015,11,16,14,13,20.50
2015,11,16,14,14,33.70
2015,11,16,14,15,21.90
2015,11,16,14,16,28.50
2015,11,16,14,17,15.60
2015,11,16,14,18,18.20
2015,11,16,14,19,19.70
2015,11,16,14,20,18.60
2015,11,16,14,21,19.90
2015,11,16,14,22,21.20
2015,11,16,14,23,16.80
2015,11,16,14,24,24.80
2015,11,16,14,25,30.90
2015,11,16,14,26,24.30
2015,11,16,14,27,30.50
2015,11,16,14,28,25.20
2015,11,16,14,29,19.70
2015,11,16,14,30,25.80
2015,11,16,14,31,23.30
2015,11,16,14,32,21.60
2015,11,16,14,33,21.40
2015,11,16,14,34,19.50
2015,11,16,14,35,25.20
2015,11,16,14,36,17.90
2015,11,16,14,37,14.50
2015,11,16,14,38,18.30
2015,11,16,14,39,20.00
2015,11,16,14,40,23.80
2015,11,16,14,41,22.80
2015,11,16,14,42,11.40
2015,11,16,14,43,15.60
2015,11,16,14,44,17.90
2015,11,16,14,45,17.10
2015,11,16,14,46,18.10
2015,11,16,14,47,10.20
2015,11,16,14,48,18.30
2015,11,16,14,49,19.00
2015,11,16,14,50,20.20
2015,11,16,14,51,16.80
2015,11,16,14,52,16.70
2015,11,16,14,53,15.20
2015,11,16,14,54,22.00
2015,11,16,14,55,20.70
2015,11,16,14,56,20.10
2015,11,16,14,57,14.00
2015,11,16,14,58,10.20
2015,11,16,14,59,14.80
2015,11,16,15,00,26.20
2015,11,16,15,01,21.20
2015,11,16,15,02,21.60
2015,11,16,15,03,15.90
2015,11,16,15,04,20.70
2015,11,16,15,05,17.60
2015,11,16,15,06,14.40
2015,11,16,15,07,16.80
2015,11,16,15,08,17.20
2015,11,16,15,09,20.50
2015,11,16,15,10,16.50
2015,11,16,15,11,14.90
2015,11,16,15,12,14.40
2015,11,16,15,13,15.80
2015,11,16,15,14,12.50
2015,11,16,15,15,12.40
2015,11,16,15,16,12.70
2015,11,16,15,17,17.90
2015,11,16,15,18,19.90
2015,11,16,15,19,12.90
2015,11,16,15,20,19.70
2015,11,16,15,21,18.40
2015,11,16,15,22,19.70
2015,11,16,15,23,23.00
2015,11,16,15,24,14.70
2015,11,16,15,25,21.00
2015,11,16,15,26,14.80
2015,11,16,15,27,15.10
2015,11,16,15,28,20.20
2015,11,16,15,29,19.40
2015,11,16,15,30,14.30
2015,11,16,15,31,21.10
2015,11,16,15,32,18.60
2015,11,16,15,33,15.80
2015,11,16,15,34,16.30
2015,11,16,15,35,19.70
2015,11,16,15,36,14.90
2015,11,16,15,37,13.70
2015,11,16,15,38,14.50
2015,11,16,15,39,16.90
2015,11,16,15,40,18.30
2015,11,16,15,41,12.90
2015,11,16,15,42,10.80
2015,11,16,15,43,7.10
2015,11,16,15,44,10.60
2015,11,16,15,45,12.20
2015,11,16,15,46,13.80
2015,11,16,15,47,11.80
2015,11,16,15,48,5.70
2015,11,16,15,49,8.40
2015,11,16,15,50,6.80
2015,11,16,15,51,12.00
2015,11,16,15,52,13.10
2015,11,16,15,53,10.50
2015,11,16,15,54,9.20
2015,11,16,15,55,10.70
2015,11,16,15,56,6.90
2015,11,16,15,57,14.00
2015,11,16,15,58,12.60
2015,11,16,15,59,13.60
2015,11,16,16,00,9.30
2015,11,16,16,01,12.60
2015,11,16,16,02,11.50
2015,11,16,16,03,9.00
2015,11,16,16,04,12.70
2015,11,16,16,05,9.50
2015,11,16,16,06,7.00
2015,11,16,16,07,10.60
2015,11,16,16,08,7.10
2015,11,16,16,09,8.50
2015,11,16,16,10,12.80
2015,11,16,16,11,12.70
2015,11,16,16,12,9.60
2015,11,16,16,13,9.10
2015,11,16,16,14,12.60
2015,11,16,16,15,10.40
2015,11,16,16,16,12.70
2015,11,16,16,17,10.40
2015,11,16,16,18,10.50
2015,11,16,16,19,7.30
2015,11,16,16,20,9.80
2015,11,16,16,21,11.90
2015,11,16,16,22,7.90
2015,11,16,16,23,7.90
2015,11,16,16,24,5.30
2015,11,16,16,25,6.50
2015,11,16,16,26,11.60
2015,11,16,16,27,12.60
2015,11,16,16,28,8.40
2015,11,16,16,29,11.30
2015,11,16,16,30,11.80
2015,11,16,16,31,10.90
2015,11,16,16,32,11.60
2015,11,16,16,33,7.50
2015,11,16,16,34,9.10
2015,11,16,16,35,7.20
2015,11,16,16,36,8.40
2015,11,16,16,37,6.10
2015,11,16,16,38,11.50
2015,11,16,16,39,17.10
2015,11,16,16,40,10.90
2015,11,16,16,41,8.00
2015,11,16,16,42,13.40
2015,11,16,16,43,7.70
2015,11,16,16,44,6.20
2015,11,16,16,45,4.10
2015,11,16,16,46,10.60
2015,11,16,16,47,8.40
2015,11,16,16,48,8.40
2015,11,16,16,49,13.20
2015,11,16,16,50,7.60
2015,11,16,16,51,10.00
2015,11,16,16,52,9.20
2015,11,16,16,53,9.70
2015,11,16,16,54,9.70
2015,11,16,16,55,7.40
2015,11,16,16,56,9.00
2015,11,16,16,57,7.00
2015,11,16,16,58,6.40
2015,11,16,16,59,12.50
2015,11,16,17,00,11.90
2015,11,16,17,01,10.00
2015,11,16,17,02,11.90
2015,11,16,17,03,14.00
2015,11,16,17,04,8.30
2015,11,16,17,05,6.90
2015,11,16,17,06,6.40
2015,11,16,17,07,7.30
2015,11,16,17,08,4.90
2015,11,16,17,09,12.30
2015,11,16,17,10,6.60
2015,11,16,17,11,14.20
2015,11,16,17,12,15.90
2015,11,16,17,13,12.40
2015,11,16,17,14,9.80
2015,11,16,17,15,8.50
2015,11,16,17,16,8.20
2015,11,16,17,17,12.90
2015,11,16,17,18,12.60
2015,11,16,17,19,9.50
2015,11,16,17,20,8.70
2015,11,16,17,21,8.70
2015,11,16,17,22,13.10
2015,11,16,17,23,5.30
2015,11,16,17,24,10.80
2015,11,16,17,25,12.80
2015,11,16,17,26,10.00
2015,11,16,17,27,9.70
2015,11,16,17,28,11.00
2015,11,16,17,29,13.70
2015,11,16,17,30,9.10
2015,11,16,17,31,10.30
2015,11,16,17,32,12.00
2015,11,16,17,33,9.50
2015,11,16,17,34,10.00
2015,11,16,17,35,8.40
2015,11,16,17,36,10.60
2015,11,16,17,37,9.90
2015,11,16,17,38,8.70
2015,11,16,17,39,8.90
2015,11,16,17,40,8.00
2015,11,16,17,41,10.30
2015,11,16,17,42,8.50
2015,11,16,17,43,5.30
2015,11,16,17,44,12.30
2015,11,16,17,45,13.60
2015,11,16,17,46,7.50
2015,11,16,17,47,5.40
2015,11,16,17,48,3.20
2015,11,16,17,49,9.00
2015,11,16,17,50,5.00
2015,11,16,17,51,4.20
2015,11,16,17,52,10.00
2015,11,16,17,53,5.00
2015,11,16,17,54,4.00
2015,11,16,17,55,1.50
2015,11,16,17,56,2.60
2015,11,16,17,57,4.40
2015,11,16,17,58,3.20
2015,11,16,17,59,0.30
2015,11,16,18,00,1.90
2015,11,16,18,01,2.00
2015,11,16,18,02,3.90
2015,11,16,18,03,4.90
2015,11,16,18,04,3.90
2015,11,16,18,05,2.40
2015,11,16,18,06,7.10
2015,11,16,18,07,5.90
2015,11,16,18,08,7.60
2015,11,16,18,09,6.00
2015,11,16,18,10,8.10
2015,11,16,18,11,7.60
2015,11,16,18,12,6.30
2015,11,16,18,13,6.00
2015,11,16,18,14,7.70
2015,11,16,18,15,5.40
2015,11,16,18,16,6.40
2015,11,16,18,17,5.10
2015,11,16,18,18,3.70
2015,11,16,18,19,6.60
2015,11,16,18,20,6.70
2015,11,16,18,21,2.70
2015,11,16,18,22,4.20
2015,11,16,18,23,3.30
2015,11,16,18,24,3.70
2015,11,16,18,25,5.80
2015,11,16,18,26,4.10
2015,11,16,18,27,2.90
2015,11,16,18,28,4.40
2015,11,16,18,29,3.30
2015,11,16,18,30,3.80
2015,11,16,18,31,2.60